TimeAEST,TemperatureF,Dew PointF,Humidity,Sea Level PressureIn,VisibilityMPH,Wind Direction,Wind SpeedMPH,Gust SpeedMPH,PrecipitationIn,Events,Conditions,WindDirDegrees,DateUTC
12:00 AM,78,75,88,29.88,5,South,15.0,,,,Overcast,170,2013-03-24 14:00:00
12:00 AM,77.0,75.2,94,29.86,6.2,South,15.0,-,N/A,,Mostly Cloudy,170,2013-03-24 14:00:00
12:30 AM,78.8,75.2,89,29.86,6.2,South,12.7,-,N/A,,Mostly Cloudy,170,2013-03-24 14:30:00
1:00 AM,78,75,87,29.87,,South,12.7,,,,,170,2013-03-24 15:00:00
1:00 AM,78.8,75.2,89,29.86,6.2,South,12.7,-,N/A,,Mostly Cloudy,170,2013-03-24 15:00:00
1:22 AM,78.8,75.2,89,29.86,3.7,South,12.7,-,N/A,Rain,Rain Showers,180,2013-03-24 15:22:00
1:30 AM,77.0,75.2,94,29.83,6.2,SSE,12.7,-,N/A,Rain,Light Rain Showers,160,2013-03-24 15:30:00
2:00 AM,77.0,75.2,94,29.83,6.2,South,11.5,-,N/A,,Mostly Cloudy,170,2013-03-24 16:00:00
2:30 AM,77.0,75.2,94,29.83,5.0,SSE,11.5,-,N/A,Rain,Light Rain Showers,160,2013-03-24 16:30:00
2:37 AM,77.0,75.2,94,29.83,3.7,ESE,10.4,-,N/A,Rain,Rain Showers,110,2013-03-24 16:37:00
2:46 AM,77.0,75.2,94,29.83,2.5,ESE,9.2,-,N/A,Rain,Rain Showers,110,2013-03-24 16:46:00
3:00 AM,77,76,94,29.83,4,SE,6.9,,,,Overcast,140,2013-03-24 17:00:00
3:00 AM,77.0,75.2,94,29.83,6.2,SE,6.9,-,N/A,,Mostly Cloudy,140,2013-03-24 17:00:00
3:30 AM,77.0,75.2,94,29.83,6.2,SSE,12.7,-,N/A,,Mostly Cloudy,160,2013-03-24 17:30:00
4:00 AM,78,75,87,29.83,,South,11.5,,,,,170,2013-03-24 18:00:00
4:00 AM,77.0,75.2,94,29.83,6.2,South,11.5,-,N/A,,Mostly Cloudy,170,2013-03-24 18:00:00
4:30 AM,77.0,75.2,94,29.83,6.2,South,15.0,-,N/A,,Scattered Clouds,170,2013-03-24 18:30:00
5:00 AM,78.8,73.4,83,29.83,6.2,South,12.7,24.2,N/A,,Scattered Clouds,170,2013-03-24 19:00:00
5:30 AM,77.0,73.4,89,29.83,6.2,South,11.5,-,N/A,,Scattered Clouds,170,2013-03-24 19:30:00
6:00 AM,77,74,87,29.85,12,South,12.7,,,Rain,Light Rain Showers,180,2013-03-24 20:00:00
6:00 AM,77.0,73.4,89,29.83,6.2,South,12.7,-,N/A,Rain,Light Rain Showers,170,2013-03-24 20:00:00
6:30 AM,77.0,73.4,89,29.86,6.2,South,10.4,-,N/A,,Mostly Cloudy,170,2013-03-24 20:30:00
7:00 AM,78,74,84,29.86,,South,10.4,,,,,170,2013-03-24 21:00:00
7:00 AM,77.0,73.4,89,29.86,6.2,South,10.4,-,N/A,,Mostly Cloudy,170,2013-03-24 21:00:00
7:30 AM,78.8,73.4,83,29.86,6.2,South,10.4,-,N/A,,Mostly Cloudy,170,2013-03-24 21:30:00
8:00 AM,80.6,73.4,79,29.86,6.2,South,13.8,-,N/A,,Mostly Cloudy,170,2013-03-24 22:00:00
8:30 AM,80.6,73.4,79,29.89,6.2,South,13.8,-,N/A,,Mostly Cloudy,170,2013-03-24 22:30:00
9:00 AM,82,73,68,29.90,12,SSE,13.8,,,,Mostly Cloudy,160,2013-03-24 23:00:00
9:00 AM,82.4,73.4,74,29.89,6.2,SSE,13.8,-,N/A,,Mostly Cloudy,160,2013-03-24 23:00:00
9:30 AM,84.2,73.4,70,29.89,6.2,SSE,17.3,-,N/A,,Mostly Cloudy,150,2013-03-24 23:30:00
10:00 AM,85,73,60,29.90,,SE,20.7,,,,,140,2013-03-25 00:00:00
10:00 AM,84.2,73.4,70,29.89,6.2,SE,20.7,-,N/A,,Mostly Cloudy,140,2013-03-25 00:00:00
10:30 AM,84.2,73.4,70,29.89,6.2,SE,23.0,-,N/A,,Scattered Clouds,140,2013-03-25 00:30:00
11:00 AM,86.0,73.4,66,29.89,6.2,SE,21.9,-,N/A,,Scattered Clouds,140,2013-03-25 01:00:00
11:30 AM,86.0,73.4,66,29.89,6.2,SE,21.9,-,N/A,,Mostly Cloudy,140,2013-03-25 01:30:00
12:00 PM,87,73,55,29.88,19,SE,20.7,,,,Partly Cloudy,140,2013-03-25 02:00:00
12:00 PM,86.0,73.4,66,29.86,6.2,SE,20.7,-,N/A,,Scattered Clouds,140,2013-03-25 02:00:00
12:30 PM,86.0,73.4,66,29.86,6.2,SE,23.0,-,N/A,,Mostly Cloudy,140,2013-03-25 02:30:00
1:00 PM,86,72,56,29.85,,SE,24.2,,,,,140,2013-03-25 03:00:00
1:00 PM,86.0,73.4,66,29.83,6.2,SE,24.2,-,N/A,,Scattered Clouds,140,2013-03-25 03:00:00
1:30 PM,86.0,73.4,66,29.83,6.2,SE,23.0,-,N/A,,Mostly Cloudy,140,2013-03-25 03:30:00
2:00 PM,87.8,73.4,62,29.80,6.2,SE,21.9,-,N/A,,Mostly Cloudy,140,2013-03-25 04:00:00
2:30 PM,86.0,73.4,66,29.80,6.2,SE,20.7,-,N/A,,Mostly Cloudy,140,2013-03-25 04:30:00
3:00 PM,86,72,55,29.81,19,SE,20.7,,,,Partly Cloudy,140,2013-03-25 05:00:00
3:00 PM,86.0,71.6,62,29.80,6.2,SE,20.7,-,N/A,,Scattered Clouds,140,2013-03-25 05:00:00
3:30 PM,86.0,73.4,66,29.80,6.2,SE,20.7,-,N/A,,Scattered Clouds,140,2013-03-25 05:30:00
4:00 PM,86,72,55,29.81,,SE,20.7,,,,,130,2013-03-25 06:00:00
4:00 PM,86.0,71.6,62,29.80,6.2,SE,20.7,-,N/A,,Scattered Clouds,130,2013-03-25 06:00:00
4:30 PM,86.0,69.8,58,29.80,6.2,SE,19.6,-,N/A,,Scattered Clouds,130,2013-03-25 06:30:00
5:00 PM,84.2,71.6,66,29.80,6.2,SE,24.2,-,N/A,,Scattered Clouds,140,2013-03-25 07:00:00
5:30 PM,82.4,71.6,70,29.80,6.2,SSE,21.9,-,N/A,,Scattered Clouds,150,2013-03-25 07:30:00
6:00 PM,82,72,65,29.83,19,SSE,19.6,,,,Partly Cloudy,150,2013-03-25 08:00:00
6:00 PM,82.4,71.6,70,29.83,6.2,SSE,19.6,-,N/A,,Scattered Clouds,150,2013-03-25 08:00:00
6:30 PM,80.6,71.6,74,29.83,6.2,SSE,16.1,-,N/A,,Scattered Clouds,150,2013-03-25 08:30:00
7:00 PM,81,71,64,29.86,,South,11.5,,,,,170,2013-03-25 09:00:00
7:00 PM,80.6,71.6,74,29.86,6.2,South,11.5,-,N/A,,Scattered Clouds,170,2013-03-25 09:00:00
7:30 PM,80.6,71.6,74,29.86,6.2,South,10.4,-,N/A,,Scattered Clouds,170,2013-03-25 09:30:00
8:00 PM,78.8,71.6,78,29.86,6.2,SSE,11.5,-,N/A,,Scattered Clouds,160,2013-03-25 10:00:00
8:30 PM,80.6,71.6,74,29.89,6.2,SSE,12.7,-,N/A,,Scattered Clouds,160,2013-03-25 10:30:00
9:00 PM,78.8,71.6,78,29.89,6.2,SSE,12.7,-,N/A,,Scattered Clouds,160,2013-03-25 11:00:00
9:30 PM,78.8,71.6,78,29.89,6.2,South,13.8,-,N/A,,Scattered Clouds,170,2013-03-25 11:30:00
10:00 PM,79,72,75,29.91,,South,11.5,,,,,180,2013-03-25 12:00:00
10:00 PM,78.8,71.6,78,29.89,6.2,South,11.5,-,N/A,,Scattered Clouds,180,2013-03-25 12:00:00
10:30 PM,78.8,71.6,78,29.89,6.2,South,10.4,-,N/A,,Mostly Cloudy,180,2013-03-25 12:30:00
11:00 PM,78.8,71.6,78,29.89,6.2,SSE,11.5,-,N/A,,Mostly Cloudy,160,2013-03-25 13:00:00
11:30 PM,78.8,71.6,78,29.89,6.2,South,11.5,-,N/A,,Scattered Clouds,170,2013-03-25 13:30:00